Weather History for KCHA - January, 2014

Change the Weather History Date:

Thursday, January 30, 2014

  Actual Average Record
Temperature  
Mean Temperature 23 °F 41 °F  
Max Temperature 41 °F 52 °F 77 °F (2002)
Min Temperature 5 °F 31 °F -7 °F (1966)
Degree Days  
Heating Degree Days 42 24  
Month to date heating degree days 935 741  
Since 1 July heating degree days 2183 2025  
Cooling Degree Days 0 0  
Month to date cooling degree days 0 0  
Year to date cooling degree days 0 0  
Moisture  
Dew Point 9 °F    
Average Humidity 61    
Maximum Humidity 91    
Minimum Humidity 30    
Precipitation  
Precipitation 0.00 in 0.16 in 2.17 in (2013)
Month to date precipitation 2.40 4.75  
Year to date precipitation 2.40 4.75  
Snow  
Snow 0.00 in 0.10 in - ()
Month to date snowfall 1.2 1.7  
Since 1 July snowfall 1.2 2.0  
Snow Depth 0.00 in    
Sea Level Pressure  
Sea Level Pressure 30.30 in    
Wind  
Wind Speed 2 mph (South)    
Max Wind Speed 13 mph    
Max Gust Speed 16 mph    
Visibility 10 miles    
Events      
T = Trace of Precipitation, MM = Missing Value Source: NWS Daily Summary

Daily Weather History Graph

Daily Weather History Graph

Search for Another Location

Airport or City:

Trip Planner

Search our weather history database for the weather conditions in past years. The results will help you decide how hot, cold, wet, or windy it might be!

Date:

Astronomy

Jan. 30, 2014 Rise Set
Actual Time 7:41 AM EST 6:07 PM EST
Civil Twilight 7:14 AM EST 6:34 PM EST
Nautical Twilight 6:44 AM EST 7:04 PM EST
Astronomical Twilight 6:14 AM EST 7:34 PM EST
Moon 7:07 AM EST (1/30) 6:16 PM EST (1/30)
Length of Visible Light 11h 19m
Length of Day
10h 26m
Waning Crescent, 0% of the Moon is Illuminated
Jan 30
Waning Crescent
Jan 30
New
Feb 6
First Quarter
Feb 14
Full
Feb 22
Last Quarter

Hourly Weather History & Observations

Time (EST) Temp. Windchill Dew Point Humidity Pressure Visibility Wind Dir Wind Speed Gust Speed Precip Events Conditions
12:53 AM 10.9 °F - 7.0 °F 84% 30.39 in 10.0 mi Calm Calm - N/A   Clear
1:53 AM 10.0 °F - 5.0 °F 80% 30.39 in 10.0 mi Calm Calm - N/A   Clear
2:53 AM 8.1 °F - 3.9 °F 83% 30.38 in 9.0 mi Calm Calm - N/A   Clear
3:53 AM 8.1 °F - 3.9 °F 83% 30.37 in 10.0 mi Calm Calm - N/A   Clear
4:53 AM 7.0 °F - 3.0 °F 84% 30.37 in 10.0 mi Calm Calm - N/A   Clear
5:53 AM 7.0 °F - 1.9 °F 80% 30.38 in 10.0 mi Calm Calm - N/A   Partly Cloudy
6:53 AM 6.1 °F - 1.0 °F 80% 30.38 in 10.0 mi Calm Calm - N/A   Partly Cloudy
7:37 AM 5.0 °F - 1.4 °F 85% 30.35 in 10.0 mi Calm Calm - N/A   Mostly Cloudy
7:53 AM 6.1 °F - 1.9 °F 83% 30.38 in 7.0 mi Calm Calm - N/A   Mostly Cloudy
8:34 AM 8.6 °F - 5.0 °F 85% 30.35 in 7.0 mi Calm Calm - N/A   Scattered Clouds
8:53 AM 9.0 °F - 6.1 °F 88% 30.40 in 7.0 mi Calm Calm - N/A   Scattered Clouds
9:53 AM 16.0 °F - 10.9 °F 81% 30.40 in 10.0 mi Calm Calm - N/A   Partly Cloudy
10:53 AM 19.9 °F - 12.0 °F 71% 30.40 in 10.0 mi Calm Calm - N/A   Scattered Clouds
11:53 AM 26.1 °F - 9.0 °F 49% 30.37 in 10.0 mi Calm Calm - N/A   Scattered Clouds
12:53 PM 30.9 °F - 12.0 °F 46% 30.32 in 10.0 mi Calm Calm - N/A   Scattered Clouds
1:53 PM 35.1 °F 32.2 °F 12.9 °F 40% 30.24 in 10.0 mi WSW 3.5 mph - N/A   Scattered Clouds
2:53 PM 39.0 °F 33.4 °F 12.0 °F 33% 30.21 in 10.0 mi South 8.1 mph - N/A   Mostly Cloudy
3:53 PM 39.9 °F 35.1 °F 12.9 °F 33% 30.17 in 10.0 mi SE 6.9 mph - N/A   Partly Cloudy
4:53 PM 41.0 °F 37.1 °F 12.0 °F 31% 30.17 in 10.0 mi Variable 5.8 mph - N/A   Partly Cloudy
5:53 PM 39.0 °F 35.7 °F 12.9 °F 34% 30.18 in 10.0 mi South 4.6 mph - N/A   Scattered Clouds
6:53 PM 35.1 °F 31.0 °F 12.9 °F 40% 30.20 in 10.0 mi South 4.6 mph - N/A   Scattered Clouds
7:53 PM 30.9 °F - 16.0 °F 54% 30.21 in 10.0 mi Calm Calm - N/A   Scattered Clouds
8:53 PM 27.0 °F - 19.0 °F 72% 30.20 in 10.0 mi Calm Calm - N/A   Partly Cloudy
9:53 PM 30.0 °F 25.2 °F 15.1 °F 54% 30.22 in 10.0 mi South 4.6 mph - N/A   Partly Cloudy
10:53 PM 27.0 °F 21.6 °F 16.0 °F 63% 30.21 in 10.0 mi South 4.6 mph - N/A   Partly Cloudy
11:53 PM 24.1 °F - 18.0 °F 77% 30.21 in 10.0 mi Calm Calm - N/A   Partly Cloudy